CZ-6A DEB

Satellite information

Favourite Embed

Satellite Type and Status

DEBRISIN ORBIT

Key statistics

Satellite CZ-6A DEB at a glance.

Uptime

1024

Days in orbit

Revolutions

≈ 14.1

Per day

Orbit

SSO

Sun Synchronous Orbit

Inclination

98.8

Latest

Satellite identification and parameters

Extended collection of information and parameters for CZ-6A DEB.

Object identification

Identified? True

Debris? True

Object name: CZ-6A DEB

International designator: 2022-151ZC

Object number (NORAD): 55554

Object ID (CCSDS): 55554

Country: PEOPLES REPUBLIC OF CHINA (PRC)

Current information (Y/N): Y

RCS size: SMALL

Orbital parameters

Period: 101.858 minutes

Inclination: 98.8033 deg

SMA: 7224.75 km

Apoapsis: 890.422 km

Periapsis: 802.808 km

RAAN: 236.9347 deg

Eccentricy: 0.00606349

Argument of periapsis: 74.1262 deg

Mean anomaly: 286.6583 deg

Mean motion: 14.13736649 rev/day

Mean motion (dot): 0.00004276 rev/day2

B* drag term: 0.002244147 1/REarth

Two-line elements (TLE)

Creation date: Aug. 31, 2025, 2:26 a.m.

Reference frame: TEME

Reference center: EARTH

Epoch: Aug. 30, 2025, 10:28 a.m. UTC

TLE line 0: 0 CZ-6A DEB

TLE line 1: 1 55554U 22151ZC 25242.43667955 .00004276 00000-0 22441-2 0 9999

TLE line 2: 2 55554 98.8033 236.9347 0060635 74.1262 286.6583 14.13736649143744

Live tracking on map

Real-time ground track for satellite CZ-6A DEB.

In-orbit conjunctions

A list of the most updated potential collisions computed for object CZ-6A DEB.

Target Orbit TCA Probability of collision Miss distance Type
COSMOS 1275 DEB LEO 2025-04-22 16:05:30 0.0001487281 18.0 (m) DEBRIS
CZ-6A DEB LEO 2025-02-19 04:37:05 0.000314508 462.0 (m) DEBRIS
NOAA 16 DEB SSO 2024-11-15 01:05:15 0.0004753636 168.0 (m) DEBRIS
FENGYUN 1C DEB SSO 2024-09-17 22:12:57 0.0001068161 225.0 (m) DEBRIS

Associated space launch

Chinese satellite reported for atmospheric/ocean/environmental/spatial parameter research purposes, details TBD.

CZ-6A DEB was lifted into orbit during the mission ‘Long March 6A | Yunhai 3’, on board a Long March 6A space rocket.

The launch took place on Nov. 11, 2022, 10:52 p.m. from Launch Complex 9A.

For more information about the launch, click the button.

Launch to space Long March 6A | Yunhai 3
Long March 6A | Yunhai 3

Agency: N/A

Status: Launch Successful

Launch date: Nov. 11, 2022, 10:52 p.m. UTC

Rocket: Long March 6A

Launch pad: Launch Complex 9A

Location: Taiyuan Satellite Launch Center, People's Republic of China

...

Latest news about this satellite

There are no fresh news available about this satellite. Check back as we update our databases every day.


Newsletter sign-up

Weekly statistics, charts and insights to help you stay on top of the space industry.